Regional Weather Roundup
Issued by NWS Huntsville, AL

Home | Current Version | Previous Version | Text Only | Print | Product List | Glossary On
Versions: 1 2 3 4 5 6 7 8 9 10 11 12 13 14 15 16 17 18 19 20 21 22 23 24 25 26 27 28 29 30 31 32 33 34 35 36 37 38 39 40 41 42 43 44 45 46 47 48 49 50
000
ASUS44 KHUN 231224
RWRHUN

WEATHER ROUNDUP FOR THE TENNESSEE VALLEY
NATIONAL WEATHER SERVICE HUNTSVILLE AL
700 AM CDT SAT AUG 23 2014

ALZ001>004-231300-
NORTHWEST ALABAMA

CITY           SKY/WX    TMP DP  RH WIND       PRES   REMARKS
COURTLAND HCN    N/A     72 N/A N/A CALM        N/A
RUSSELLVILLE     N/A     68 N/A N/A MISG        N/A
SHOALS AIRPORT CLEAR     73  69  87 CALM      30.05S
6HR MIN TEMP:  71; 6HR MAX TEMP:  75;

SHOALS TVA RES   N/A     72 N/A N/A MISG        N/A
$$

ALZ005>007-016-231300-
NORTH CENTRAL ALABAMA

CITY           SKY/WX    TMP DP  RH WIND       PRES   REMARKS
CULLMAN AG STN   N/A     68 N/A N/A CALM        N/A
DECATUR AP     CLEAR     72  71  97 CALM      30.05R
6HR MIN TEMP:  70; 6HR MAX TEMP:  75;

HUNTSVILLE AP  PTCLDY    74  71  91 CALM      30.05R
6HR MIN TEMP:  73; 6HR MAX TEMP:  77;

MERIDIANVILLE  CLEAR     70  66  88 CALM      30.06R
VINEMONT AP    FAIR      71  70  96 CALM      30.08S
$$

ALZ008>010-231300-
NORTHEAST ALABAMA

CITY           SKY/WX    TMP DP  RH WIND       PRES   REMARKS
ALBERTVILLE    CLEAR     73  73 100 CALM      30.06R
CROSSVILLE       N/A     70 N/A N/A CALM        N/A
FORT PAYNE     CLEAR     68  64  88 CALM      30.05S
SCOTTSBORO AP  CLOUDY    72  72 100 CALM      30.05S FOG
SCOTTSBORO HCN   N/A     72 N/A N/A MISG        N/A
VALLEY HEAD      N/A     68 N/A N/A MISG        N/A
$$

TNZ076-096-097-231300-
SOUTHEASTERN MIDDLE TENNESSEE

CITY           SKY/WX    TMP DP  RH WIND       PRES   REMARKS
FAYETTEVILLE   CLEAR     72  70  94 CALM      30.06R
TULLAHOMA      CLEAR     72  70  94 CALM      30.07R
WINCHESTER     CLEAR     73  72  94 CALM      30.06S
$$

...SURROUNDING SITES...

CITY           SKY/WX    TMP DP  RH WIND       PRES   REMARKS
ATLANTA        MOSUNNY   76  70  82 NW7       30.03R
ANNISTON       CLEAR     72  70  93 CALM      30.04R
BIRMINGHAM     PTCLDY    75  71  87 CALM      30.07R
CHATTANOOGA    PTCLDY    75  71  87 CALM      30.03S
CORINTH        FAIR      73  72  94 CALM      30.03S
DALTON         SUNNY     72  72 100 CALM      30.04R
GADSDEN        CLEAR     72  68  88 CALM      30.05R
GOLDEN TRNGL   CLEAR     72  66  83 CALM      30.05R
HALEYVILLE     FAIR      70  70 100 CALM      30.09R
JACKSON TN     CLEAR     75  72  90 CALM      30.01S
LEWISBURG      FAIR      72  69  90 CALM      30.04R
MEMPHIS        PTCLDY    78  72  81 CALM      30.02R
MURFREESBORO   FAIR      74  71  90 CALM      30.02R
NASHVILLE      MOCLDY    77  71  82 NW3       30.02S
OXFORD MS      FAIR      72  70  94 CALM      30.06S
ROME           CLEAR     71  71 100 CALM      30.03R
SAVANNAH       CLEAR     72  72 100 CALM      30.04R
TUPELO         CLEAR     74  71  91 CALM      30.04R
TUSCALOOSA     CLEAR     74  71  91 CALM      30.04R
$$

...GULF COAST WEATHER...

CITY           SKY/WX    TMP DP  RH WIND       PRES   REMARKS
GULFPORT       CLEAR     78  75  90 NW3       30.01S
PASCAGOULA     CLEAR     75  75 100 CALM      30.02S FOG
MOBILE         PTCLDY    77  75  93 W5        30.03S
GULF SHORES    SUNNY     81  78  91 NW5       30.02R
PENSACOLA      CLEAR     79  77  94 NW5       30.01R
DESTIN         CLEAR     83  76  79 NW5       30.00S HX  91
PANAMA CITY    CLEAR     80  80 100 NW3       30.00R
APPALACHICOLA  CLEAR     81  78  91 CALM      30.00R FOG
$$



USA.gov is the U.S. government's official web portal to all federal, state and local government web resources and services.